This is the latest recevied weather packets stored in our database for station/object JF7BTK-10. If no packets are shown the sender has not sent any weather packets the latest 10 day(s).
| Time | Temp. | Humidity | Pressure | Rain* | Wind** | Luminosity | Snow |
|---|---|---|---|---|---|---|---|
| 1777890979 | 10° C | 91% | 991.3 hPa | 0 mm | - | - | - |
| 1777890699 | 10.56° C | 91% | 991.3 hPa | 0 mm | - | - | - |
| 1777890379 | 10.56° C | 90% | 990.9 hPa | 0 mm | - | - | - |
| 1777889800 | 11.11° C | 87% | 990.5 hPa | 0 mm | - | - | - |
| 1777888899 | 11.11° C | 85% | 990.4 hPa | 0 mm | - | - | - |
| 1777888000 | 11.67° C | 83% | 990.4 hPa | 0 mm | - | - | - |
| 1777887099 | 11.67° C | 81% | 990.1 hPa | 0 mm | - | - | - |
| 1777885300 | 12.78° C | 78% | 989.3 hPa | 0 mm | - | - | - |
| 1777884399 | 13.33° C | 76% | 989 hPa | 0 mm | - | - | - |
| 1777883500 | 13.89° C | 73% | 988.7 hPa | 0 mm | - | - | - |
| 1777882600 | 14.44° C | 75% | 988.6 hPa | 0 mm | - | - | - |
| 1777882212 | 14.44° C | 74% | 988.5 hPa | 0 mm | - | - | - |
| 1777881536 | 15.56° C | 76% | 988.6 hPa | 0 mm | - | - | - |
| 1777880635 | 15.56° C | 74% | 988.3 hPa | 0 mm | - | - | - |
| 1777879734 | 15.56° C | 75% | 988.3 hPa | 0 mm | - | - | - |
| 1777878835 | 15.56° C | 78% | 988.4 hPa | 0 mm | - | - | - |
| 1777877935 | 15.56° C | 77% | 988.4 hPa | 0 mm | - | - | - |
| 1777877036 | 15° C | 79% | 988.5 hPa | 0 mm | - | - | - |
| 1777876136 | 14.44° C | 79% | 988.7 hPa | 0 mm | - | - | - |
| 1777875236 | 14.44° C | 78% | 988.5 hPa | 0 mm | - | - | - |
| 1777874335 | 15° C | 79% | 988.4 hPa | 0 mm | - | - | - |
| 1777873435 | 15° C | 80% | 988.4 hPa | 0 mm | - | - | - |
| 1777872536 | 15° C | 79% | 988.2 hPa | 0 mm | - | - | - |
| 1777871635 | 15.56° C | 78% | 988 hPa | 0.25 mm | - | - | - |
| 1777870737 | 15.56° C | 79% | 988.1 hPa | 0.25 mm | - | - | - |
* Rain latest hour (hover to see other rain measurements)
** Current wind speed in m/s (hover to see current wind gust speed)